Regional Weather Roundup
Issued by NWS

Home | Current Version | Previous Version | Text Only | Print | Product List | Glossary Off
Versions: 1 2 3 4 5 6 7 8 9 10 11 12 13 14 15 16 17 18 19 20 21 22 23 24 25 26 27 28 29

000
ASUS45 KGTF 200810
RWRMT
MONTANA HOURLY WEATHER ROUNDUP
NATIONAL WEATHER SERVICE GREAT FALLS MT
200 AM MDT MON APR 20 2015

NOTE: "FAIR" INDICATES FEW OR NO CLOUDS BELOW 12000 FEET WITH NO
SIGNIFICANT WEATHER AND/OR OBSTRUCTIONS TO VISIBILITY.

MTZ001>007-043-200900-
WEST OF THE DIVIDE

CITY           SKY/WX    TMP DP  RH WIND       PRES   REMARKS
KALISPELL      SUNNY     33  30  88 CALM      30.00S
MISSOULA       CLEAR     39  27  62 CALM      30.03S
BUTTE          CLEAR     30  23  75 SE6       30.06S WCI  24
DEER LODGE       N/A     34  25  69 CALM      30.09S
EUREKA           N/A     36  27  69 CALM      30.02R
HAMILTON         N/A     39  28  65 S5        30.02S
LIBBY            N/A     36  30  80 CALM      30.01R
$$

MTZ008-052>055-200900-
SOUTHWEST MONTANA

CITY           SKY/WX    TMP DP  RH WIND       PRES   REMARKS
BOZEMAN        CLOUDY    36  26  67 CALM      30.05F
DILLON         MOCLDY    34  25  69 SE5       30.03F
$$

MTZ009-010-012-014-046-048-049-054-200900-
EAST SLOPES AND CENTRAL MONTANA

CITY           SKY/WX    TMP DP  RH WIND       PRES   REMARKS
CUT BANK       CLEAR     34  18  52 SE8       30.01F WCI  27
GREAT FALLS    CLEAR     36  23  59 SE3       30.03F
MALMSTROM AFB  CLEAR     29  25  83 S5        30.03F
HELENA         CLEAR     36  24  62 SW3       30.05F
$$

MTZ011-013-016-021-045-047-050-051-200900-
NORTH CENTRAL MONTANA

CITY           SKY/WX    TMP DP  RH WIND       PRES   REMARKS
HAVRE          CLEAR     26  20  77 W5        30.04F
LEWISTOWN      CLEAR     27  18  69 SE6       30.05F WCI  20
CHINOOK          N/A     27  19  74 CALM      30.05F
FORT BENTON      N/A     34  23  64 W3        30.05F
$$

MTZ017>020-022>042-056>058-061-062-200900-
EASTERN PLAINS

CITY           SKY/WX    TMP DP  RH WIND       PRES   REMARKS
BAKER          CLOUDY    30  18  60 W6        29.97F WCI  24
BILLINGS       PTCLDY    42  17  36 S3        30.04F
GLASGOW        CLEAR     31  22  69 NW8       30.01F WCI  23
JORDAN           N/A     25  17  72 W6        30.03F WCI  18
LIVINGSTON     CLOUDY    33  24  69 CALM      30.05F
MILES CITY     CLEAR     29  16  58 W12       30.01F WCI  19
SIDNEY         CLEAR     32  14  47 W12       29.97F WCI  23
WOLF POINT     CLEAR     35  23  61 NW13      30.00F WCI  26
BIG TIMBER       N/A     37  21  52 SW3       30.06F
FORSYTH          N/A     37  21  52 W6        30.04S
PLENTYWOOD       N/A     28  16  59 W6        29.96F WCI  22
POPLAR           N/A     30  19  64 N7        29.99F WCI  23
$$

REGIONAL REPORTS...DAKOTAS

CITY           SKY/WX    TMP DP  RH WIND       PRES   REMARKS
WILLISTON      CLEAR     31  15  52 NW14      29.95F WCI  21
MINOT          CLEAR     31  22  69 W16       29.84F WCI  20
DICKINSON      CLEAR     27  18  69 W12       29.90F WCI  17
BEACH          PTSUNNY   25  12  58 N3        29.96F
CROSBY         FAIR      25  18  74 NW12      29.94F WCI  14
WATFORD CITY   FAIR      32  16  51 NW9       29.92F WCI  24
BISMARCK       CLEAR     33  25  72 NW8       29.86F WCI  26
GRAND FORKS    CLOUDY    33  28  81 NW13      29.71F WCI  24
FARGO          CLOUDY    35  29  78 N13       29.72F WCI  26
BUFFALO SD       N/A     29  17  61 NW14      29.89F WCI  18
RAPID CITY     CLEAR     31  20  63 NW12      29.97F WCI  22
$$

REGIONAL REPORTS...WYOMING/IDAHO/WASHINGTON

CITY           SKY/WX    TMP DP  RH WIND       PRES   REMARKS
GILLETTE       CLOUDY    32  20  61 W8        30.02F WCI  25
SHERIDAN       PTCLDY    26  18  71 SW7       30.04F WCI  18
BUFFALO WY     CLOUDY    35  17  47 W5        30.04F
CODY           CLEAR     34  25  69 CALM      30.05S
YELLOWSTONE LA   N/A     25  20  81 CALM      30.07F
IDAHO FALLS    PTCLDY    38  27  64 NW5       29.98S
SALMON         CLEAR     39  25  56 CALM      30.00S
BOISE          CLEAR     47  31  53 SE6       29.93F
SPOKANE        PTCLDY    50  31  48 SW7       29.96F
$$

REGIONAL REPORTS...ALBERTA

CITY           SKY/WX    TMP DP  RH WIND       PRES   REMARKS
EDMONTON       CLEAR     39  21  48 SW8       29.95F
CALGARY        CLEAR     41  21  45 SW9       29.98F
LETHBRIDGE     CLEAR     32  25  74 S8G18     30.00F WCI  25
MEDICINE HAT   CLEAR     28  21  74 S6        30.02F WCI  22
$$

REGIONAL REPORTS...SASKATCHEWAN

CITY           SKY/WX    TMP DP  RH WIND       PRES   REMARKS
SWIFT CURRENT  CLEAR     28  21  74 W9        30.00F WCI  20
REGINA         CLEAR     21  18  86 NW9       29.97F WCI  11
SASKATOON      CLEAR     27  19  74 N2        30.02F
$$



USA.gov is the U.S. government's official web portal to all federal, state and local government web resources and services.